STARLINK-36049

Last updated on Mon Dec 15 2025 00:02:11 GMT+0000 (Coordinated Universal Time)

1 66805U 25278Q 25348.25003472 -.01304448 00000+0 -67622-2 0 9994 2 66805 42.9971 242.7570 0001928 280.5001 125.1188 15.82863574 3202
UTC large
Height (km)
Speed (km/s)
/
Latitude / Longitude
Inclination (degrees)
Orbital Period (minutes)
Azimuth
Elevation
Range (km)
Doppler Factor

Next 0 passes for location: London (51.5072 / 0.1276)

Sorry there are no passes over London.